Flag for Canada Weather past 2 weeks in Prince George, British Columbia, Canada

Now
57 °F

Sunny.


Feels Like: 57 °F
Forecast: 47 / 63 °F
Wind: 2 mph from North

Location: Prince George

Current Time: Sep 22, 2014 at 10:11:47 AM

Latest Report: Sep 22, 2014 at 9:00 AM


Visibility: 9 mi

Pressure: 29.83 "Hg

Humidity: 67%

Dew point: 46 °F

Location of Prince GeorgeLocation

Historic Weather in Prince George — Graph

°F

Prince George temperature yesterday

Maximum temperature yesterday: 81 °F (at 3:00 PM)
Minimum temperature yesterday: 39 °F (at 6:00 AM)
Average temperature yesterday: 60 °F

Past Weeks' High & Low Weather Summary

 TemperatureHumidityPressure
High81 °F (Sep 21, 3:00 PM)100% (Sep 8, 2:00 AM)30.60 "Hg (Sep 8, 2:00 AM)
Low23 °F (Sep 11, 5:00 AM)24% (Sep 21, 4:00 PM)29.61 "Hg (Sep 18, 6:00 PM)
Average49 °F72%30.06 "Hg
* Reported Sep 7 9:00 AM — Sep 22 9:00 AM, Prince George, Weather by CustomWeather, © 2014

Note: Actual official high and low records may vary slightly from our data, if they occured in-between our weather recording intervals... More about our weather records

Advertising

Prince George weather history for previous 24 hours

 ConditionsComfort  
Time TempWeatherWind HumidityBarometerVisibility
9:00 AM
Sep 22
57 °FSunny.2 mph67%29.83 "Hg9 mi
8:00 AM52 °FSunny.7 mph77%29.81 "Hg9 mi
7:00 AM50 °FPassing clouds.No wind76%29.80 "Hg9 mi
6:00 AM55 °FClear.5 mph63%29.77 "Hg9 mi
5:00 AM54 °FClear.5 mph67%29.75 "Hg9 mi
4:00 AM52 °FClear.3 mph72%29.74 "Hg9 mi
3:00 AM55 °FClear.7 mph63%29.73 "Hg9 mi
2:00 AM57 °FClear.8 mph59%29.72 "Hg9 mi
1:00 AM64 °FClear.12 mph43%29.70 "Hg9 mi
12:00 AM64 °FClear.9 mph46%29.70 "Hg9 mi
11:00 PM
Sep 21
66 °FClear.13 mph43%29.68 "Hg9 mi
10:00 PM61 °FClear.5 mph52%29.70 "Hg9 mi
9:00 PM64 °FClear.6 mph46%29.70 "Hg9 mi
8:00 PM68 °FSunny.7 mph40%29.71 "Hg9 mi
7:00 PM68 °FSunny.3 mph46%29.72 "Hg9 mi
6:00 PM75 °FSunny.6 mph31%29.73 "Hg9 mi
5:00 PM79 °FSunny.7 mph28%29.73 "Hg9 mi
4:00 PM81 °FSunny.14 mph24%29.75 "Hg9 mi
3:00 PM81 °FSunny.14 mph26%29.77 "Hg9 mi
2:00 PM79 °FSunny.12 mph28%29.79 "Hg9 mi
1:00 PM79 °FSunny.16 mph30%29.81 "Hg9 mi
12:00 PM72 °FSunny.6 mph41%29.84 "Hg9 mi
11:00 AM66 °FSunny.6 mph49%29.87 "Hg9 mi
10:00 AM57 °FSunny.3 mph72%29.90 "Hg9 mi
Weather by CustomWeather, © 2014

See weather overviewHow to use our weather pages